Weather in Yasnogorsk

Russia / Zabaykalsky Krai     50°52′26″N   115°41′31″E
temp.,
°C
wind,
m/s
gust,
m/s
humid.,
%
clouds,
%
prec.,
mm/h
press.,
hPa
HPBL,
m
9 may, sun
sun900:00+6nne115239 0.0 100710
03:00+5wnw005566 0.0 100710
06:00+4nne116025 0.0 100810
09:00+8e214552 0.0 1008431
12:00+11nw133596 0.0 10071780
15:00+13nw452592 0.0 10052648
18:00+14wsw452797 0.0 10052209
21:00+9ene3456100 0.3 1007129
10 may, mon
mon1000:00+8e1165100 0.4 100851
03:00+6se117177 0.8 100810
06:00+5e1172100 0.0 100810
09:00+9se1156100 0.0 1008443
12:00+13s2339100 0.0 10061595
15:00+11ene1349100 0.2 10061299
18:00+13nne4344100 0.0 1004647
21:00+10nne2362100 0.1 100695
11 may, tue
tue1100:00+9n477293 0.0 1005386
03:00+8n4779100 0.0 1005462
06:00+7n3783100 0.0 1004318
09:00+8nne6871100 0.0 1003825
12:00+9nne8967100 0.1 10021137
15:00+12nne91247100 0.1 10001989
18:00+14nne71235100 0.1 10002581
21:00+10nnw4947100 0.1 1001234
12 may, wed
wed1200:00+8wnw5959100 0.4 1003170
03:00+6nw5970100 0.5 1004238
06:00+5wnw488018 0.0 1006178
09:00+10nw69530 0.0 1006609
12:00+14nw793310 0.0 10052417
15:00+16nw9923100 0.0 10043212
18:00+16nw682046 0.0 10043170
21:00+13wnw510327 0.0 1005284
13 may, thu
thu1300:00+10w37395 0.0 1006132
03:00+8w34556 0.0 100770
06:00+7wsw2258100 0.0 100724
09:00+11wnw6848100 0.0 1006778
12:00+11wnw91135100 0.0 10071740
15:00+12wnw7929100 0.0 10062558
18:00+12nw792994 0.0 10052599
21:00+7nw465179 0.0 1008206